Regional Weather Roundup
Issued by NWS Cleveland, OH

Home | Current Version | Previous Version | Graphics & Text | Print | Product List | Glossary On
Versions: 1 2 3 4 5 6 7 8 9 10 11 12 13 14 15 16 17 18 19 20 21 22 23 24 25 26 27 28 29 30 31 32 33 34 35 36 37 38 39 40 41 42 43 44 45 46 47 48 49 50
000
ASUS41 KCLE 281112
RWRCLE
OHIO REGIONAL WEATHER ROUNDUP
NATIONAL WEATHER SERVICE WILMINGTON, OH
700 AM EDT SUN MAY 28 2017

NOTE: "FAIR" INDICATES FEW OR NO CLOUDS BELOW 12,000 FEET WITH NO
SIGNIFICANT WEATHER AND/OR OBSTRUCTIONS TO VISIBILITY.

OHZ001>008-015>018-024>027-034-035-043-044-281200-
   NORTHWEST OHIO

CITY           SKY/WX    TMP DP  RH WIND       PRES   REMARKS
DEFIANCE       FAIR      58  53  84 NE5       29.76F
FINDLAY        FAIR      61  54  77 E6        29.76S
TOLEDO EXPRESS MOCLDY    57  57 100 E3        29.77F
TOLEDO EXEC    MOCLDY    62  58  86 E6        29.80R
LIMA           FAIR      62  59  90 E5        29.76R
$$

OHZ009>014-019>023-028>033-038-089-281200-
   NORTHEAST OHIO

CITY           SKY/WX    TMP DP  RH WIND       PRES   REMARKS
CLE-HOPKINS    MOCLDY    62  53  72 E3        29.81F
CLE-LAKEFRONT  FAIR      60  55  83 CALM      29.79F
CUY CO. ARPT   MOCLDY    61  54  77 S5        29.82
LORAIN-ELYRIA  FAIR      57  49  74 SE5       29.80F
ASHTABULA      FAIR      51  51 100 CALM      29.83F
AKRON-CANTON   MOCLDY    60  55  83 E7        29.80F
WOOSTER        FAIR      58  54  86 E3        29.80F
MANSFIELD      FAIR      58  57  97 E7        29.80S
YOUNGSTOWN     CLOUDY    57  54  89 E7        29.82F
$$

OHZ042-051>053-060>062-070>072-077>081-281200-
  SOUTHWEST OHIO

CITY           SKY/WX    TMP DP  RH WIND       PRES   REMARKS
CINC-COVINGTON MOCLDY    62  61  96 S10       29.78S
CINC-LUNKEN    FAIR      63  62  97 S5        29.79S
HAMILTON       FAIR      65  63  93 S5        29.78S
DAYTON         CLOUDY    65  63  93 S10       29.77S
WRIGHT-PAT AFB CLOUDY    66  66 100 S9        29.77S
DAYTON GENERAL CLOUDY    64  61  90 S9        29.77S
WILMINGTON     FAIR      63  62  97 SW9       29.79R
$$

OHZ036-037-039>041-045>050-054>059-063>069-073>076-082>088-281200-
  CENTRAL AND SOUTHEAST OHIO

CITY           SKY/WX    TMP DP  RH WIND       PRES   REMARKS
COLUMBUS       CLOUDY    68  66  93 SE7       29.77S
OSU AIRPORT    CLOUDY    68  67  96 S8        29.78R
BOLTON FIELD   NOT AVBL
RICKENBACK AFB CLOUDY    65  65  99 SW7       29.78R
NEWARK         CLOUDY    66  63  90 E5        29.77F
MARION         FAIR      63  61  93 SE6       29.78S FOG
LANCASTER      CLOUDY    69  64  84 S6        29.78F
ZANESVILLE     CLOUDY    66  63  90 SE5       29.79F FOG
NEW PHILLY     FAIR      59  59 100 SE3       29.80F FOG
$$




USA.gov is the U.S. government's official web portal to all federal, state and local government web resources and services.